Inquirer Daily News

Weather

Get conditions and forecasts for any City, State, ZIP code or Country:  
Trenton, NJ
on Thursday, December 6, 2012

Thursday
Previous Day Next Day
Daily Summary
 ActualAverageRecord
Temperature
Mean Temperature °F 38°F  
Max Temperature 41°F 46°F 72°F (2001)
Min Temperature 27°F 31°F 12°F (1926)
Degree Days
Heating Degree Days 31 27  
Month to date heating degree days 111 154  
Since 1 July heating degree days 1118 1130  
Cooling Degree Days 0 0  
Month to date cooling degree days 0 0  
Year to date cooling degree days 1234 965  
Moisture
Dew Point 19°F   
Average Humidity 56    
Maximum Humidity 72    
Minimum Humidity 40    
Precipitation
Precipitation 0.00 in 0.13 in 1.30 in (1996)
Month to date precipitation 0.09 0.84  
Year to date precipitation 33.32 43.58  
Wind
Wind Speed 2 mph   
Max Wind Speed 12 mph   
Max Gust Speed 16 mph   
Visibility 10 miles   
Events     

Key: T is trace of precipitation, MM is missing value
Source: NWS Daily Summary
Time(EST)TemperatureDew PointHumidity Pressure Visibility Wind DirectionWind SpeedGust SpeedPrecipitationEvents Conditions
12:53 AM 30.9°F 18.0°F 59% 30.26 in 10.0 miles NNW 4.6 mph - N/A   Clear
1:53 AM 32.0°F 18.0°F 56% 30.28 in 10.0 miles Variable 3.5 mph - N/A   Clear
2:53 AM 30.9°F 18.0°F 59% 30.28 in 10.0 miles NNW 5.8 mph - N/A   Clear
3:53 AM 30.0°F 18.0°F 61% 30.28 in 10.0 miles NNW 4.6 mph - N/A   Clear
4:53 AM 28.9°F 18.0°F 64% 30.29 in 10.0 miles North 4.6 mph - N/A   Clear
5:53 AM 28.9°F 18.0°F 64% 30.31 in 10.0 miles North 3.5 mph - N/A   Clear
6:53 AM 28.0°F 18.0°F 66% 30.32 in 10.0 miles North 5.8 mph - N/A   Clear
7:53 AM 28.9°F 19.0°F 67% 30.34 in 10.0 miles North 3.5 mph - N/A   Clear
8:53 AM 32.0°F 19.0°F 59% 30.36 in 10.0 miles NE 3.5 mph - N/A   Clear
9:53 AM 34.0°F 18.0°F 52% 30.37 in 10.0 miles North 5.8 mph - N/A   Clear
10:53 AM 36.0°F 18.0°F 48% 30.36 in 10.0 miles Calm Calm - N/A   Clear
11:53 AM 37.9°F 18.0°F 45% 30.32 in 10.0 miles East 4.6 mph - N/A   Clear
12:53 PM 37.9°F 19.0°F 47% 30.30 in 10.0 miles Calm Calm - N/A   Clear
1:53 PM 39.0°F 18.0°F 43% 30.28 in 10.0 miles Calm Calm - N/A   Clear
2:53 PM 39.9°F 18.0°F 41% 30.27 in 10.0 miles Calm Calm - N/A   Clear
3:53 PM 39.0°F 17.1°F 41% 30.28 in 10.0 miles Calm Calm - N/A   Clear
4:53 PM 37.9°F 18.0°F 45% 30.28 in 10.0 miles Calm Calm - N/A   Clear
5:53 PM 34.0°F 19.0°F 54% 30.27 in 10.0 miles Calm Calm - N/A   Clear
6:53 PM 33.1°F 19.9°F 59% 30.28 in 10.0 miles Calm Calm - N/A   Clear
7:53 PM 32.0°F 19.9°F 61% 30.29 in 10.0 miles Calm Calm - N/A   Clear
8:53 PM 30.9°F 19.9°F 64% 30.29 in 10.0 miles Calm Calm - N/A   Clear
9:53 PM 30.9°F 23.0°F 72% 30.28 in 10.0 miles South 4.6 mph - N/A   Clear
10:53 PM 30.0°F 23.0°F 75% 30.29 in 10.0 miles SSW 4.6 mph - N/A   Clear
11:53 PM 30.9°F 24.1°F 76% 30.27 in 10.0 miles Calm Calm - N/A   Clear
Astronomy
Sunrise:07:07 AM (EST) Moon Rise:No Moon Rise/
Sunset:04:33 PM (EST) Moon Set:11:58 AM (EST)12/6
Moon Phase
Dec. 06 Dec. 13 Dec. 20 Dec. 28 Jan. 04

Copyright © 2014 The Weather Underground, Inc.